This is the latest recevied weather packets stored in our database for station/object VE3MJM-WX. If no packets are shown the sender has not sent any weather packets the latest 10 day(s).
| Time | Temp. | Humidity | Pressure | Rain* | Wind** | Luminosity | Snow |
|---|---|---|---|---|---|---|---|
| 1777831209 | 13.89° C | 42% | 1003.4 hPa | 0 mm | - | - | - |
| 1777830307 | 15° C | 41% | 1003.3 hPa | 0 mm | - | - | - |
| 1777829404 | 15.56° C | 40% | 1003.5 hPa | 0 mm | - | - | - |
| 1777828501 | 15° C | 40% | 1003.7 hPa | 0 mm | - | - | - |
| 1777827599 | 13.89° C | 45% | 1004.2 hPa | 0 mm | - | - | - |
| 1777826696 | 13.89° C | 48% | 1004.7 hPa | 0 mm | - | - | - |
| 1777825794 | 13.89° C | 42% | 1004.7 hPa | 0 mm | - | - | - |
| 1777824891 | 13.33° C | 48% | 1004.9 hPa | 0 mm | - | - | - |
| 1777823989 | 11.67° C | 47% | 1005.1 hPa | 0 mm | - | - | - |
| 1777823086 | 12.78° C | 46% | 1005.4 hPa | 0 mm | - | - | - |
| 1777822184 | 11.67° C | 45% | 1005.4 hPa | 0 mm | - | - | - |
| 1777821281 | 11.67° C | 48% | 1005.7 hPa | 0 mm | - | - | - |
| 1777820379 | 11.11° C | 45% | 1005.8 hPa | 0 mm | - | - | - |
| 1777819476 | 10° C | 46% | 1006.2 hPa | 0 mm | - | - | - |
| 1777818574 | 10° C | 46% | 1005.9 hPa | 0 mm | - | - | - |
| 1777817671 | 10° C | 46% | 1006.6 hPa | 0 mm | - | - | - |
| 1777816768 | 9.44° C | 44% | 1006.6 hPa | 0 mm | - | - | - |
| 1777815866 | 9.44° C | 49% | 1006.9 hPa | 0 mm | - | - | - |
| 1777814963 | 8.89° C | 51% | 1007.2 hPa | 0 mm | - | - | - |
| 1777814061 | 7.22° C | 59% | 1007.4 hPa | 0 mm | - | - | - |
| 1777813158 | 6.11° C | 63% | 1007.9 hPa | 0 mm | - | - | - |
| 1777812256 | 5.56° C | 69% | 1008.1 hPa | 0 mm | - | - | - |
| 1777811353 | 3.89° C | 77% | 1008 hPa | 0 mm | - | - | - |
| 1777810450 | 2.78° C | 78% | 1008 hPa | 0 mm | - | - | - |
| 1777809548 | 2.22° C | 80% | 1008.4 hPa | 0 mm | - | - | - |
* Rain latest hour (hover to see other rain measurements)
** Current wind speed in m/s (hover to see current wind gust speed)